Location: Chiroubles
(46.1812°N, 4.6660°E)
Time: 23:50:35
(UTC+00:00)

Altair - Visible Passes

Search period start: 05 December 2020 00:00
Search period end: 15 December 2020 00:00
Orbit: 1502 x 1682 km, 47.2° (Epoch: 05 December)

Date Brightness Start Highest point End Pass type
(mag) Time Alt. Az. Time Alt. Az. Time Alt. Az.
05 Dec 7.9 17:44:15 10° SSW 17:53:11 46° SE 17:57:36 29° E visible
05 Dec 7.6 19:47:54 10° WSW 19:55:38 65° WSW 19:55:38 65° WSW visible
05 Dec 9.6 21:52:57 10° W 21:53:39 13° W 21:53:39 13° W visible
06 Dec 8.0 17:19:16 10° SSW 17:28:06 43° SE 17:33:55 21° E visible
06 Dec 7.3 19:22:42 10° WSW 19:31:56 83° SSW 19:31:56 83° SSW visible
06 Dec 9.2 21:27:44 10° W 21:29:58 20° W 21:29:58 20° W visible
07 Dec 8.1 16:54:17 10° SSW 17:03:01 41° SE 17:10:12 15° ENE visible
07 Dec 7.2 18:57:31 10° WSW 19:07:03 82° SSE 19:08:13 71° E visible
07 Dec 8.9 21:02:31 10° W 21:06:14 28° W 21:06:14 28° W visible
08 Dec 8.3 16:29:21 10° SSW 16:37:56 38° SE 16:46:15 10° ENE visible
08 Dec 7.4 18:32:20 10° WSW 18:41:53 80° SSE 18:44:28 53° E visible
08 Dec 8.4 20:37:18 10° W 20:42:30 38° W 20:42:30 38° W visible
09 Dec 7.4 18:07:09 10° WSW 18:16:43 77° SSE 18:20:42 40° E visible
09 Dec 8.0 20:12:05 10° W 20:18:44 52° W 20:18:44 52° W visible
10 Dec 7.5 17:41:59 10° WSW 17:51:34 74° SSE 17:56:56 29° ENE visible
10 Dec 7.5 19:46:51 10° W 19:54:57 68° WNW 19:54:57 68° WNW visible
10 Dec 9.5 21:51:52 10° WNW 21:52:58 14° WNW 21:52:58 14° WNW visible
11 Dec 7.6 17:16:49 10° SW 17:26:25 71° SSE 17:33:08 21° ENE visible
11 Dec 7.3 19:21:37 10° W 19:31:09 84° N 19:31:09 84° N visible
11 Dec 9.2 21:26:40 10° WNW 21:29:11 21° WNW 21:29:11 21° WNW visible
12 Dec 7.7 16:51:40 10° SW 17:01:16 68° SSE 17:09:21 15° ENE visible
12 Dec 7.3 18:56:23 10° W 19:05:58 84° N 19:07:22 69° ENE visible
12 Dec 8.8 21:01:28 10° WNW 21:05:23 29° WNW 21:05:23 29° WNW visible
13 Dec 7.8 16:26:32 10° SW 16:36:07 65° SSE 16:45:20 10° ENE visible
13 Dec 7.4 18:31:10 10° W 18:40:47 85° N 18:43:34 52° ENE visible
13 Dec 8.4 20:36:15 10° WNW 20:41:35 39° WNW 20:41:35 39° WNW visible
14 Dec 7.4 18:05:56 10° W 18:15:35 86° N 18:19:47 39° E visible
14 Dec 7.9 20:11:04 10° WNW 20:17:48 53° W 20:17:48 53° W visible
